This is the latest recevied weather packets stored in our database for station/object WX4SGA. If no packets are shown the sender has not sent any weather packets the latest 1 day(s).
| Time | Temp. | Humidity | Pressure | Rain* | Wind** | Luminosity | Snow |
|---|---|---|---|---|---|---|---|
| 1778031626 | 21.11° C | 72% | 1016.3 hPa | 0 mm | 0 m/s | 0 W/m² | - |
| 1778031325 | 21.11° C | 71% | 1016.3 hPa | 0 mm | 0 m/s | 0 W/m² | - |
| 1778031021 | 21.11° C | 70% | 1016.3 hPa | 0 mm | 0 m/s | 0 W/m² | - |
| 1778030717 | 21.11° C | 69% | 1016.3 hPa | 0 mm | 0 m/s | 0 W/m² | - |
| 1778030414 | 21.67° C | 71% | 1016.3 hPa | 0 mm | 0 m/s | 0 W/m² | - |
| 1778030112 | 21.67° C | 69% | 1016.3 hPa | 0 mm | 0 m/s | 0 W/m² | - |
| 1778029808 | 21.67° C | 68% | 1016.3 hPa | 0 mm | 0 m/s | 0 W/m² | - |
| 1778029507 | 22.22° C | 69% | 1016.3 hPa | 0 mm | 0 m/s | 0 W/m² | - |
| 1778029203 | 22.22° C | 68% | 1015.9 hPa | 0 mm | 0 m/s | 0 W/m² | - |
| 1778028900 | 22.22° C | 67% | 1016.3 hPa | 0 mm | 0 m/s | 0 W/m² | - |
| 1778028595 | 22.22° C | 64% | 1015.9 hPa | 0 mm | 0 m/s | 0 W/m² | - |
| 1778028294 | 22.78° C | 65% | 1015.9 hPa | 0 mm | 0 m/s | 0 W/m² | - |
| 1778027990 | 22.78° C | 65% | 1015.6 hPa | 0 mm | 0 m/s | 0 W/m² | - |
| 1778027686 | 23.33° C | 65% | 1015.6 hPa | 0 mm | 0 m/s | 0 W/m² | - |
| 1778027383 | 23.33° C | 63% | 1015.2 hPa | 0 mm | 0 m/s | 0 W/m² | - |
| 1778027079 | 23.89° C | 62% | 1015.6 hPa | 0 mm | 0 m/s | 1 W/m² | - |
| 1778026774 | 23.89° C | 60% | 1015.2 hPa | 0 mm | 0 m/s | 1 W/m² | - |
| 1778026472 | 24.44° C | 59% | 1015.6 hPa | 0 mm | 0 m/s | 2 W/m² | - |
| 1778026169 | 25° C | 56% | 1015.6 hPa | 0 mm | 0 m/s | 3 W/m² | - |
| 1778025866 | 25° C | 57% | 1015.2 hPa | 0 mm | 0 m/s | 5 W/m² | - |
| 1778025563 | 25.56° C | 53% | 1015.6 hPa | 0 mm | 0 m/s | 7 W/m² | - |
| 1778025261 | 26.11° C | 51% | 1015.6 hPa | 0 mm | 0 m/s | 11 W/m² | - |
| 1778024957 | 26.11° C | 50% | 1015.2 hPa | 0 mm | 0 m/s | 16 W/m² | - |
| 1778024655 | 26.67° C | 49% | 1015.2 hPa | 0 mm | 0.45 m/s, 66° | 20 W/m² | - |
| 1778024352 | 26.67° C | 50% | 1015.2 hPa | 0 mm | 0 m/s | 23 W/m² | - |
* Rain latest hour (hover to see other rain measurements)
** Current wind speed in m/s (hover to see current wind gust speed)